SAS1477 ENBR-EKVG

Flight info

Callsign SAS1477
Flight time 1h 6m
Altitude 36000
Route REKLI DCT VALDI/M075F360 DCT ROBUR
Aircraft A320/M-SDE3FGHIRWY/LB1

Departure

Time 2026-04-29 18:32
Airport Bergen Airport, Flesland (ENBR)

Arrival

Time 2026-04-29 19:38
Airport Vágar Airport (EKVG)
Time Latitude Longitude Altitude Speed Heading
2026-04-29 18:03 60.28997 5.22721 175 ft 0 kts 182°
2026-04-29 18:25 60.28998 5.22721 175 ft 2 kts 182°
2026-04-29 18:25 60.29015 5.22722 175 ft 2 kts 182°
2026-04-29 18:25 60.29031 5.22722 175 ft 2 kts 192°
2026-04-29 18:25 60.29045 5.22739 176 ft 2 kts 262°
2026-04-29 18:26 60.29046 5.22746 176 ft 0 kts 273°
2026-04-29 18:28 60.29046 5.22738 176 ft 2 kts 273°
2026-04-29 18:28 60.29048 5.22648 176 ft 10 kts 265°
2026-04-29 18:28 60.29037 5.22454 176 ft 17 kts 260°
2026-04-29 18:28 60.28962 5.22377 175 ft 14 kts 196°
2026-04-29 18:29 60.28898 5.22291 171 ft 13 kts 173°
2026-04-29 18:29 60.28830 5.22312 171 ft 17 kts 171°
2026-04-29 18:29 60.28642 5.22371 167 ft 24 kts 169°
2026-04-29 18:29 60.28462 5.22432 163 ft 29 kts 171°
2026-04-29 18:30 60.28302 5.22484 158 ft 14 kts 170°
2026-04-29 18:30 60.28185 5.22524 155 ft 20 kts 170°
2026-04-29 18:30 60.28069 5.22497 152 ft 13 kts 245°
2026-04-29 18:30 60.28053 5.22304 153 ft 15 kts 286°
2026-04-29 18:31 60.28150 5.22213 153 ft 19 kts 349°
2026-04-29 18:31 60.28487 5.22098 158 ft 85 kts 351°
2026-04-29 18:31 60.29272 5.21834 157 ft 141 kts 350°
2026-04-29 18:31 60.30358 5.21440 433 ft 165 kts 349°
2026-04-29 18:32 60.31508 5.21011 1134 ft 170 kts 349°
2026-04-29 18:32 60.33877 5.20148 2421 ft 183 kts 350°
2026-04-29 18:32 60.35187 5.19669 2882 ft 199 kts 350°
2026-04-29 18:33 60.36635 5.19172 3213 ft 224 kts 351°
2026-04-29 18:33 60.38272 5.18551 3572 ft 251 kts 341°
2026-04-29 18:33 60.39767 5.16642 4421 ft 259 kts 312°
2026-04-29 18:33 60.40639 5.13457 5442 ft 262 kts 289°
2026-04-29 18:34 60.41225 5.09962 6447 ft 264 kts 290°
2026-04-29 18:34 60.41638 5.07640 7092 ft 266 kts 291°
2026-04-29 18:34 60.42507 5.02897 8326 ft 269 kts 291°
2026-04-29 18:34 60.43161 4.99347 9263 ft 272 kts 291°
2026-04-29 18:35 60.43822 4.95734 10202 ft 274 kts 291°
2026-04-29 18:35 60.44488 4.92046 10819 ft 288 kts 291°
2026-04-29 18:35 60.45189 4.88143 11157 ft 308 kts 291°
2026-04-29 18:35 60.45932 4.84000 11810 ft 315 kts 291°
2026-04-29 18:36 60.46682 4.79806 12563 ft 319 kts 291°
2026-04-29 18:36 60.47437 4.75559 13330 ft 323 kts 291°
2026-04-29 18:36 60.48201 4.71250 14085 ft 327 kts 291°
2026-04-29 18:36 60.48974 4.66882 14773 ft 331 kts 291°
2026-04-29 18:37 60.49751 4.62466 15456 ft 334 kts 291°
2026-04-29 18:37 60.50539 4.57963 16138 ft 337 kts 291°
2026-04-29 18:37 60.51314 4.53460 16809 ft 340 kts 291°
2026-04-29 18:37 60.52078 4.48961 17466 ft 343 kts 291°
2026-04-29 18:38 60.52871 4.44304 18145 ft 346 kts 291°
2026-04-29 18:38 60.53668 4.39661 18815 ft 349 kts 291°
2026-04-29 18:38 60.54476 4.34986 19410 ft 353 kts 291°
2026-04-29 18:38 60.55294 4.30259 20014 ft 356 kts 291°
2026-04-29 18:39 60.56116 4.25494 20621 ft 359 kts 291°
2026-04-29 18:39 60.56945 4.20682 21208 ft 363 kts 290°
2026-04-29 18:39 60.57783 4.15821 21791 ft 366 kts 290°
2026-04-29 18:39 60.58627 4.10910 22343 ft 369 kts 290°
2026-04-29 18:40 60.59475 4.05955 22908 ft 373 kts 289°
2026-04-29 18:40 60.60328 4.00958 23480 ft 376 kts 289°
2026-04-29 18:40 60.61186 3.95904 24070 ft 379 kts 289°
2026-04-29 18:40 60.62047 3.90816 24557 ft 382 kts 289°
2026-04-29 18:41 60.64654 3.75371 25981 ft 390 kts 289°
2026-04-29 18:41 60.65537 3.70130 26437 ft 392 kts 289°
2026-04-29 18:42 60.66425 3.64853 26895 ft 395 kts 289°
2026-04-29 18:42 60.67315 3.59548 27343 ft 397 kts 288°
2026-04-29 18:42 60.68208 3.54194 27783 ft 399 kts 288°
2026-04-29 18:42 60.69099 3.48813 28207 ft 402 kts 288°
2026-04-29 18:43 60.69993 3.43389 28621 ft 404 kts 288°
2026-04-29 18:43 60.70890 3.37931 29037 ft 407 kts 288°
2026-04-29 18:43 60.71793 3.32429 29452 ft 409 kts 288°
2026-04-29 18:43 60.72699 3.26905 29865 ft 412 kts 288°
2026-04-29 18:44 60.73610 3.21346 30273 ft 414 kts 288°
2026-04-29 18:44 60.74525 3.15743 30649 ft 417 kts 288°
2026-04-29 18:44 60.75442 3.10113 30993 ft 419 kts 288°
2026-04-29 18:44 60.76363 3.04432 31334 ft 421 kts 287°
2026-04-29 18:45 60.77281 2.98729 31670 ft 424 kts 287°
2026-04-29 18:45 60.78204 2.92973 32000 ft 426 kts 287°
2026-04-29 18:45 60.79127 2.87197 32378 ft 427 kts 287°
2026-04-29 18:45 60.80049 2.81424 32851 ft 426 kts 287°
2026-04-29 18:46 60.80967 2.75667 33320 ft 425 kts 287°
2026-04-29 18:46 60.81880 2.69916 33772 ft 425 kts 287°
2026-04-29 18:46 60.82790 2.64160 34212 ft 424 kts 286°
2026-04-29 18:46 60.83697 2.58410 34647 ft 424 kts 286°
2026-04-29 18:47 60.84600 2.52669 35035 ft 423 kts 286°
2026-04-29 18:47 60.85501 2.46922 35409 ft 422 kts 286°
2026-04-29 18:47 60.86397 2.41191 35786 ft 422 kts 286°
2026-04-29 18:47 60.87290 2.35466 36148 ft 421 kts 286°
2026-04-29 18:48 60.88180 2.29731 36427 ft 422 kts 286°
2026-04-29 18:48 60.89063 2.24015 36479 ft 419 kts 286°
2026-04-29 18:48 60.90810 2.12659 36488 ft 416 kts 286°
2026-04-29 18:49 60.92544 2.01320 36492 ft 415 kts 286°
2026-04-29 18:49 60.94266 1.89986 36482 ft 415 kts 286°
2026-04-29 18:50 60.95981 1.78634 36486 ft 415 kts 286°
2026-04-29 18:50 60.97687 1.67278 36471 ft 416 kts 286°
2026-04-29 18:51 60.99375 1.55882 36476 ft 416 kts 285°
2026-04-29 18:51 61.01060 1.44462 36489 ft 416 kts 286°
2026-04-29 18:52 61.02743 1.33044 36488 ft 416 kts 285°
2026-04-29 18:52 61.04405 1.21623 36496 ft 416 kts 285°
2026-04-29 18:53 61.06065 1.10195 36493 ft 415 kts 285°
2026-04-29 18:53 61.07707 0.98771 36476 ft 415 kts 285°
2026-04-29 18:54 61.09339 0.87348 36478 ft 414 kts 285°
2026-04-29 18:54 61.10688 0.77846 36470 ft 414 kts 285°
2026-04-29 18:55 61.12302 0.66440 36455 ft 409 kts 285°
2026-04-29 18:55 61.13891 0.55175 36429 ft 408 kts 285°
2026-04-29 18:56 61.15465 0.43853 36426 ft 410 kts 285°
2026-04-29 18:56 61.17029 0.32469 36427 ft 411 kts 284°
2026-04-29 18:57 61.18594 0.21042 36434 ft 413 kts 284°
2026-04-29 18:57 61.20148 0.09572 36442 ft 413 kts 284°
2026-04-29 18:58 61.21691 -0.01917 36448 ft 413 kts 284°
2026-04-29 18:58 61.23186 -0.13429 36443 ft 413 kts 283°
2026-04-29 18:59 61.24644 -0.24975 36449 ft 413 kts 283°
2026-04-29 18:59 61.26087 -0.36517 36455 ft 413 kts 283°
2026-04-29 19:00 61.27539 -0.48069 36456 ft 413 kts 283°
2026-04-29 19:00 61.28986 -0.59626 36444 ft 413 kts 283°
2026-04-29 19:01 61.30412 -0.71205 36447 ft 413 kts 283°
2026-04-29 19:01 61.31833 -0.82789 36457 ft 413 kts 283°
2026-04-29 19:02 61.33245 -0.94399 36454 ft 413 kts 283°
2026-04-29 19:02 61.34638 -1.05997 36464 ft 413 kts 283°
2026-04-29 19:03 61.36016 -1.17517 36441 ft 412 kts 282°
2026-04-29 19:03 61.37387 -1.29110 36446 ft 412 kts 282°
2026-04-29 19:04 61.38753 -1.40697 36448 ft 411 kts 282°
2026-04-29 19:04 61.40111 -1.52301 36449 ft 411 kts 282°
2026-04-29 19:05 61.41455 -1.63908 36438 ft 411 kts 282°
2026-04-29 19:05 61.42786 -1.75517 36440 ft 411 kts 282°
2026-04-29 19:06 61.44105 -1.87141 36426 ft 411 kts 282°
2026-04-29 19:07 61.46069 -2.04587 36431 ft 411 kts 282°
2026-04-29 19:07 61.47370 -2.16228 36437 ft 411 kts 281°
2026-04-29 19:08 61.48659 -2.27883 36432 ft 411 kts 281°
2026-04-29 19:08 61.49924 -2.39520 36121 ft 408 kts 281°
2026-04-29 19:08 61.50549 -2.45279 35699 ft 405 kts 281°
2026-04-29 19:09 61.51170 -2.51004 35275 ft 402 kts 281°
2026-04-29 19:09 61.51789 -2.56690 34855 ft 399 kts 281°
2026-04-29 19:09 61.52401 -2.62332 34420 ft 396 kts 281°
2026-04-29 19:09 61.53004 -2.67940 33932 ft 393 kts 280°
2026-04-29 19:10 61.53598 -2.73506 33464 ft 390 kts 280°
2026-04-29 19:10 61.54184 -2.79027 33015 ft 387 kts 280°
2026-04-29 19:10 61.54764 -2.84512 32577 ft 383 kts 279°
2026-04-29 19:10 61.55334 -2.89947 32149 ft 380 kts 279°
2026-04-29 19:11 61.55889 -2.95275 31741 ft 377 kts 279°
2026-04-29 19:11 61.56444 -3.00636 31329 ft 375 kts 279°
2026-04-29 19:11 61.56994 -3.05963 30945 ft 372 kts 279°
2026-04-29 19:11 61.57540 -3.11246 30570 ft 370 kts 279°
2026-04-29 19:12 61.58085 -3.16508 30151 ft 367 kts 279°
2026-04-29 19:12 61.58632 -3.21798 29735 ft 365 kts 279°
2026-04-29 19:12 61.59158 -3.26905 29340 ft 362 kts 278°
2026-04-29 19:12 61.59514 -3.30398 29074 ft 361 kts 278°
2026-04-29 19:13 61.60206 -3.37189 28571 ft 358 kts 279°
2026-04-29 19:13 61.60799 -3.42251 28184 ft 356 kts 281°
2026-04-29 19:13 61.61457 -3.47265 27802 ft 355 kts 282°
2026-04-29 19:13 61.62040 -3.52265 27414 ft 350 kts 277°
2026-04-29 19:14 61.62499 -3.57272 27046 ft 348 kts 278°
2026-04-29 19:14 61.63034 -3.62233 26653 ft 347 kts 279°
2026-04-29 19:14 61.63612 -3.67141 26263 ft 345 kts 280°
2026-04-29 19:14 61.64205 -3.72019 25855 ft 343 kts 280°
2026-04-29 19:15 61.64794 -3.76870 25471 ft 341 kts 280°
2026-04-29 19:15 61.65366 -3.81687 25077 ft 339 kts 279°
2026-04-29 19:15 61.65924 -3.86494 24686 ft 337 kts 279°
2026-04-29 19:15 61.66469 -3.91265 24300 ft 335 kts 279°
2026-04-29 19:16 61.67011 -3.96067 23489 ft 343 kts 279°
2026-04-29 19:16 61.67570 -4.01095 22714 ft 352 kts 279°
2026-04-29 19:16 61.68127 -4.06149 22130 ft 355 kts 279°
2026-04-29 19:16 61.68689 -4.11208 21650 ft 354 kts 279°
2026-04-29 19:17 61.69248 -4.16232 21237 ft 351 kts 279°
2026-04-29 19:17 61.69803 -4.21217 20834 ft 348 kts 279°
2026-04-29 19:17 61.70357 -4.26168 20448 ft 346 kts 279°
2026-04-29 19:17 61.70903 -4.31088 20054 ft 344 kts 278°
2026-04-29 19:18 61.71445 -4.35999 19670 ft 345 kts 278°
2026-04-29 19:18 61.71802 -4.39268 19413 ft 345 kts 278°
2026-04-29 19:18 61.72516 -4.45851 18905 ft 343 kts 278°
2026-04-29 19:18 61.73045 -4.50749 18507 ft 341 kts 278°
2026-04-29 19:19 61.73571 -4.55614 18075 ft 339 kts 277°
2026-04-29 19:19 61.74091 -4.60440 17661 ft 336 kts 277°
2026-04-29 19:19 61.74601 -4.65176 17244 ft 334 kts 277°
2026-04-29 19:19 61.75115 -4.69946 16847 ft 332 kts 277°
2026-04-29 19:20 61.75622 -4.74689 16473 ft 330 kts 277°
2026-04-29 19:20 61.76122 -4.79404 16087 ft 328 kts 277°
2026-04-29 19:20 61.76615 -4.84098 15718 ft 326 kts 277°
2026-04-29 19:20 61.77107 -4.88764 15343 ft 325 kts 277°
2026-04-29 19:21 61.77595 -4.93406 14973 ft 323 kts 277°
2026-04-29 19:21 61.78079 -4.98024 14614 ft 321 kts 277°
2026-04-29 19:21 61.78559 -5.02627 14277 ft 320 kts 276°
2026-04-29 19:21 61.79033 -5.07195 13869 ft 318 kts 276°
2026-04-29 19:22 61.79503 -5.11751 13456 ft 316 kts 276°
2026-04-29 19:22 61.79974 -5.16353 13058 ft 315 kts 276°
2026-04-29 19:22 61.80430 -5.20807 12680 ft 314 kts 276°
2026-04-29 19:22 61.80891 -5.25312 12308 ft 313 kts 276°
2026-04-29 19:23 61.81347 -5.29787 11925 ft 309 kts 277°
2026-04-29 19:23 61.81795 -5.34167 11779 ft 299 kts 276°
2026-04-29 19:23 61.82229 -5.38388 11611 ft 289 kts 276°
2026-04-29 19:23 61.82651 -5.42463 11525 ft 279 kts 276°
2026-04-29 19:24 61.83056 -5.46429 11265 ft 274 kts 276°
2026-04-29 19:24 61.83450 -5.50351 10933 ft 272 kts 276°
2026-04-29 19:24 61.83838 -5.54260 10670 ft 271 kts 276°
2026-04-29 19:24 61.84226 -5.58165 10457 ft 271 kts 276°
2026-04-29 19:25 61.84612 -5.62082 10245 ft 271 kts 276°
2026-04-29 19:25 61.84997 -5.65981 10009 ft 271 kts 276°
2026-04-29 19:25 61.85381 -5.69875 9770 ft 269 kts 276°
2026-04-29 19:25 61.85763 -5.73752 9589 ft 268 kts 276°
2026-04-29 19:26 61.86143 -5.77608 9380 ft 267 kts 276°
2026-04-29 19:26 61.86523 -5.81451 9177 ft 266 kts 276°
2026-04-29 19:26 61.86899 -5.85281 8966 ft 265 kts 276°
2026-04-29 19:26 61.87271 -5.89102 8764 ft 265 kts 276°
2026-04-29 19:27 61.87640 -5.92916 8565 ft 264 kts 276°
2026-04-29 19:27 61.88005 -5.96723 8360 ft 263 kts 276°
2026-04-29 19:27 61.88369 -6.00519 8160 ft 262 kts 276°
2026-04-29 19:27 61.88734 -6.04301 7955 ft 262 kts 276°
2026-04-29 19:28 61.89098 -6.08079 7760 ft 261 kts 276°
2026-04-29 19:28 61.89456 -6.11841 7555 ft 260 kts 276°
2026-04-29 19:28 61.89811 -6.15594 7371 ft 259 kts 276°
2026-04-29 19:28 61.90171 -6.19344 7173 ft 259 kts 276°
2026-04-29 19:29 61.90530 -6.23079 6978 ft 258 kts 276°
2026-04-29 19:29 61.90884 -6.26811 6775 ft 258 kts 276°
2026-04-29 19:29 61.91232 -6.30531 6575 ft 257 kts 276°
2026-04-29 19:29 61.91579 -6.34238 6388 ft 256 kts 276°
2026-04-29 19:30 61.91926 -6.37938 6205 ft 255 kts 276°
2026-04-29 19:30 61.92272 -6.41620 6026 ft 254 kts 276°
2026-04-29 19:30 61.92614 -6.45293 5849 ft 253 kts 276°
2026-04-29 19:30 61.92954 -6.48959 5687 ft 253 kts 276°
2026-04-29 19:31 61.93293 -6.52612 5508 ft 252 kts 276°
2026-04-29 19:31 61.93625 -6.56217 5339 ft 252 kts 276°
2026-04-29 19:31 61.93964 -6.59912 5160 ft 251 kts 276°
2026-04-29 19:31 61.94297 -6.63531 4980 ft 247 kts 276°
2026-04-29 19:32 61.94617 -6.67015 4800 ft 240 kts 276°
2026-04-29 19:32 61.94933 -6.70442 4618 ft 233 kts 276°
2026-04-29 19:32 61.95238 -6.73764 4431 ft 224 kts 275°
2026-04-29 19:32 61.95531 -6.76980 4256 ft 216 kts 275°
2026-04-29 19:33 61.95805 -6.80060 4106 ft 214 kts 276°
2026-04-29 19:33 61.96082 -6.83206 4010 ft 214 kts 276°
2026-04-29 19:33 61.96357 -6.86322 4010 ft 215 kts 276°
2026-04-29 19:33 61.96756 -6.89265 4009 ft 206 kts 288°
2026-04-29 19:34 61.97390 -6.91929 4008 ft 197 kts 291°
2026-04-29 19:34 61.98027 -6.94443 4006 ft 191 kts 291°
2026-04-29 19:34 61.98654 -6.96933 3851 ft 190 kts 291°
2026-04-29 19:34 61.99276 -6.99398 3582 ft 188 kts 292°
2026-04-29 19:35 61.99893 -7.01846 3267 ft 186 kts 291°
2026-04-29 19:35 62.00488 -7.04208 2987 ft 177 kts 291°
2026-04-29 19:35 62.01049 -7.06435 2710 ft 164 kts 290°
2026-04-29 19:35 62.01571 -7.08517 2486 ft 157 kts 290°
2026-04-29 19:36 62.02071 -7.10508 2219 ft 145 kts 290°
2026-04-29 19:36 62.02523 -7.12308 1990 ft 132 kts 289°
2026-04-29 19:36 62.02945 -7.13998 1781 ft 127 kts 288°
2026-04-29 19:36 62.03360 -7.15648 1571 ft 124 kts 289°
2026-04-29 19:37 62.03784 -7.17280 1177 ft 127 kts 288°
2026-04-29 19:37 62.03930 -7.17833 1185 ft 127 kts 288°
2026-04-29 19:37 62.04622 -7.20672 974 ft 130 kts 288°
2026-04-29 19:37 62.05035 -7.22403 755 ft 132 kts 288°
2026-04-29 19:38 62.05479 -7.24134 484 ft 132 kts 291°
2026-04-29 19:38 62.05903 -7.25882 320 ft 134 kts 293°
2026-04-29 19:38 62.06277 -7.27420 286 ft 61 kts 299°
2026-04-29 19:38 62.06418 -7.27966 296 ft 37 kts 298°
2026-04-29 19:39 62.06477 -7.28142 288 ft 11 kts 338°
2026-04-29 19:39 62.06558 -7.28098 290 ft 12 kts 16°
2026-04-29 19:39 62.06644 -7.28099 289 ft 13 kts 348°
2026-04-29 19:39 62.06705 -7.28058 289 ft 6 kts 46°
2026-04-29 19:40 62.06710 -7.28026 289 ft 0 kts 74°